Regional Weather Roundup
Issued by NWS

Home | Current Version | Previous Version | Text Only | Print | Product List | Glossary Off
Versions: 1 2 3 4 5 6 7 8 9 10 11 12 13 14 15 16 17 18 19 20 21 22 23 24 25 26 27 28

000
ASUS45 KCYS 200610
RWRWY

WYOMING REGIONAL WEATHER ROUNDUP
NATIONAL WEATHER SERVICE CHEYENNE WY
1200 AM MDT FRI OCT 20 2017

NOTE:  "FAIR" INDICATES FEW OR NO CLOUDS BELOW 12,000 FEET
WITH NO SIGNIFICANT WEATHER AND/OR OBSTRUCTIONS TO VISIBILITY.

WYZ001-200700-
YELLOWSTONE NATIONAL PARK

CITY           SKY/WX    TMP DP  RH WIND       PRES   REMARKS
LK YELLOWSTONE   N/A     26  21  81 W3        29.88F
6HR MIN TEMP:  26; 6HR MAX TEMP:  52;

W YELLOWSTONE  NOT AVBL

$$
WYZ002>013-054>058-071-098>099-200700-
NORTHERN WYOMING

CITY           SKY/WX    TMP DP  RH WIND       PRES   REMARKS
JACKSON        FAIR      31  21  66 N6        29.84F WCI  25
CODY           FAIR      55  15  20 SW9       29.70F
GREYBULL       FAIR      41  21  44 CALM      29.67F
6HR MIN TEMP:  41; 6HR MAX TEMP:  74;

WORLAND        FAIR      44  25  47 E9        29.68F
6HR MIN TEMP:  41; 6HR MAX TEMP:  67;

SHERIDAN       FAIR      44  27  51 VRB5      29.61F
6HR MIN TEMP:  41; 6HR MAX TEMP:  69;

BUFFALO        FAIR      55  12  18 NW3       29.67F
6HR MIN TEMP:  53; 6HR MAX TEMP:  70;

GILLETTE       FAIR      60  16  18 S18       29.66F
6HR MIN TEMP:  57; 6HR MAX TEMP:  71;

HULETT         FAIR      64  19  17 SW16      29.66F
NEWCASTLE      FAIR      59  19  21 SE14      29.74F

$$
WYZ014>020-022>026-101>103-200700-
CENTRAL WYOMING

CITY           SKY/WX    TMP DP  RH WIND       PRES   REMARKS
BIG PINEY      CLOUDY    40  19  43 NE3       29.90F
6HR MIN TEMP:  36; 6HR MAX TEMP:  60;

PINEDALE       CLOUDY    37  23  56 W3        29.92F
DUBOIS         FAIR      41  14  33 W15       29.84F
LANDER         FAIR      53  18  25 E6        29.76F
6HR MIN TEMP:  49; 6HR MAX TEMP:  65;

RIVERTON       FAIR      52  19  27 W9        29.76F
6HR MIN TEMP:  49; 6HR MAX TEMP:  65;

CASPER         FAIR      51  29  42 SW12      29.80F
6HR MIN TEMP:  45; 6HR MAX TEMP:  65;

DOUGLAS        FAIR      45  28  51 E3        29.80F
6HR MIN TEMP:  44; 6HR MAX TEMP:  65;


$$
WYZ021-027>030-104>119-200700-
SOUTHERN WYOMING

CITY           SKY/WX    TMP DP  RH WIND       PRES   REMARKS
EVANSTON       FAIR      48  34  58 S9        29.90F
6HR MIN TEMP:  48; 6HR MAX TEMP:  63;

KEMMERER       FAIR      48  21  34 SW7       29.92F
FORT BRIDGER   FAIR      55  28  35 SW16      29.94F
ROCK SPRINGS   FAIR      52  27  38 SW17      29.91F
6HR MIN TEMP:  51; 6HR MAX TEMP:  63;

DIXON          CLOUDY    58  29  32 S9        29.97F
RAWLINS        FAIR      51  25  36 W15       29.92F
6HR MIN TEMP:  45; 6HR MAX TEMP:  62;

SARATOGA       FAIR      46  30  53 S16       29.97F
LARAMIE        FAIR      40  24  53 SE5       29.98F
6HR MIN TEMP:  37; 6HR MAX TEMP:  61;

CHEYENNE       FAIR      44  23  43 W6        29.91F
6HR MIN TEMP:  42; 6HR MAX TEMP:  62;

TORRINGTON     FAIR      46  26  45 E7        29.79F
6HR MIN TEMP:  46; 6HR MAX TEMP:  70;

PINE BLUFFS    FAIR      45  32  61 MISG      29.87F

$$




USA.gov is the U.S. government's official web portal to all federal, state and local government web resources and services.